SCP
0 0 0 0 0 0 0 0 0 0 0 0 0 0 0 0 0 0 0 0 0 -0 0 0 0 0 0 0 0 0 0 0 0 0 0 0 0 0
0 0 0 0 0 0 0 0 0 0 0 0 0 0 0 0 0 0 0 0 0 0 0 0 0 0 0 0 0 0 0 0 0 0 0 0 0 0
0 0 0 0 0 0 0 0 0 0 0 0 0 0 0 0 0 0 0 0 0 0 0 0 0 0 0 0 0 0 0 0 0 0 0 0 0 0
0 0 0 0 0 0 0 0 0 0 0 0 0 0 0 0 0 0 0 0 0 0 0 0 0 0 0 0 0 0 0 0 0 0 0 0 0 0
0 0 0 0 0 0 0 0 0 0 0 0 0 0 0 0 0 0 0 0 0 0 0 0 0 0 0 0 0 0 0 0 0 0 0 0 0 0
0 0 0 0 0 0 0 0 0 0 0 0 0 0 0 0 0 0 0 0 0 0 0 0 0 0 0 0 0 0 0 0 0 0 0 0 0 0
0 0 0 0 0 0 0 0 0 0 0 0 0 0 0 0 0 0 0 0 0 0 0 0 0 0 0 0 0 0 0 0 0 0 0 0 0 0
0 0 0 0 0 0 0 0 0 0 0 0 0 0 0 0 0 0 0 0 0 0 0 0 0 0 0 0 0 0 0 0 0 0 0 0 0 0
0 0 0 0 0 0 0 0 0 0 0 0 0 0 0 0 0 0 0 0 0 0 -0 0 0 0 0 0 0 0 0 0 0 0 0 0 0 0
0 0 0 0 0 0 0 0 0 0 0 0 0 0 0 0 0 0 0 0 0 0 -0 -0 0 0 0 0 0 0 0 0 0 0 0 0 0 0
0 0 0 0 0 0 0 0 0 0 0 0 0 0 0 0 0 0 0 0 0 0 0 -0 -0 0 0 0 0 0 0 0 0 0 0 0 0 0
0 0 0 0 0 0 0 0 0 0 0 0 0 0 0 0 0 0 0 0 0 0 0 0 0 0 0 0 0 0 0 0 0 0 0 0 0 0
0 0 0 0 -0 -0 0 0 0 0 0 0 0 0 0 0 0 0 0 0 0 0 0 0 0 0 0 0 0 0 0 0 0 0 0 0 0 0
0 0 0 0 0 0 0 0 0 0 0 0 0 0 0 0 0 0 0 0 0 0 0 0 0 0 0 0 0 0 0 0 0 0 0 0 0 0
0 0 0 0 0 0 0 0 0 0 0 0 0 0 0 0 0 0 0 0 0 0 0 0 0 0 0 0 0 0 0 0 0 0 0 0 0 0
0 0 0 0 0 0 0 0 0 0 0 0 0 0 0 0 0 0 0 0 0 0 0 0 0 0 0 0 0 0 0 0 0 0 0 0 0 0
0 0 0 0 0 0 0 0 0 0 0 0 0 0 0 0 0 0 0 0 0 0 0 0 0 0 0 0 0 0 0 0 0 0 0 0 0 0
0 0 0 0 0 0 0 0 0 0 0 0 0 0 0 0 0 0 0 0 0 0 0 0 0 0 0 0 0 0 0 0 0 0 0 0 0 0
0 0 0 0 0 0 0 0 0 0 0 0 0 0 0 0 0 0 0 0 0 0 0 0 0 0 0 0 0 0 0 0 0 0 0 0 0 0
0 0 0 0 0 0 0 0 0 0 0 0 0 0 0 0 0 0 0 0 0 0 0 0 0 0 0 0 0 0 0 0 0 0 0 0 0 0
0 0 0 0 0 0 0 0 0 0 0 0 0 0 0 0 0 0 0 0 0 0 0 0 0 0 0 0 0 0 0 0 0 0 0 0 0 0
0 0 0 0 0 0 0 0 0 0 0 0 0 0 0 0 0 0 0 0 0 0 0 0 0 0 0 0 0 0 0 0 0 0 0 0 0 0
0 0 0 0 0 0 0 0 0 0 0 0 0 0 0 0 0 0 0 -0 -0 0 0 0 0 0 0 0 0 0 0 0 0 0 0 0 0 0
Wind_Speed
5 5 4 4 4 4 3 2 2 2 3 4 3 4 3 2 2 2 2 6 8 9 10 11 12 13 13 13 13 13 14 14 14 15 15 15 16 16
3 5 4 3 4 4 3 3 2 1 1 2 2 3 4 3 4 3 4 9 10 10 11 12 12 13 14 14 14 14 14 14 15 15 15 15 16 16
4 5 4 3 3 4 3 3 3 2 1 3 2 3 3 4 5 4 4 4 5 10 12 12 12 12 12 13 14 14 15 15 15 15 15 16 16 16
5 4 4 4 4 3 3 3 3 2 1 3 3 3 4 4 4 5 4 4 4 9 11 11 11 11 11 12 13 13 14 14 14 15 16 16 16 16
4 4 3 3 3 2 3 3 2 3 1 1 3 3 3 3 4 4 5 4 6 7 9 9 10 11 11 12 12 13 13 12 13 13 14 15 15 16
4 4 3 2 1 2 2 3 3 3 3 2 3 3 3 4 2 3 4 4 5 6 6 7 8 10 11 11 12 12 11 11 11 11 11 12 13 14
5 5 4 3 4 2 2 3 3 2 3 3 3 3 4 3 3 3 3 5 5 3 3 5 5 4 6 9 10 11 10 10 10 10 10 10 11 12
5 5 4 4 6 7 9 8 6 3 3 2 2 4 5 4 3 3 2 3 5 3 2 5 3 4 5 4 8 10 10 10 9 9 10 10 11 11
4 4 3 4 4 4 8 10 9 9 6 3 3 5 4 4 3 4 3 3 4 4 2 4 3 4 5 5 10 10 9 9 10 10 10 11 11 11
4 3 2 3 3 4 5 7 7 7 7 4 4 6 7 6 5 4 3 4 5 4 2 3 3 4 5 4 8 8 9 10 10 10 11 11 11 11
5 4 3 3 6 7 5 6 8 7 7 8 9 9 11 11 6 2 2 1 3 4 1 1 3 4 4 4 5 9 10 10 11 11 11 11 10 9
5 5 6 7 9 9 4 4 6 7 7 9 9 9 7 7 6 4 3 2 2 3 3 1 2 3 4 4 4 4 5 8 10 10 10 10 9 4
5 5 6 11 13 11 6 4 7 7 6 6 6 6 6 4 4 2 3 4 3 4 4 1 1 1 2 4 4 4 4 4 4 5 7 9 8 5
4 5 7 13 13 10 6 6 8 6 3 4 4 4 4 4 4 4 3 4 5 6 5 3 2 2 1 3 4 5 4 4 3 4 4 6 6 7
5 10 12 12 9 6 8 9 6 3 3 3 4 4 4 4 4 4 4 3 3 4 4 3 3 2 2 2 3 4 4 4 3 4 3 3 3 3
6 9 11 9 7 6 6 6 4 3 3 3 4 4 4 4 3 2 2 3 3 4 4 2 2 3 2 2 2 3 3 4 4 4 3 2 3 3
6 4 4 5 6 6 5 5 5 5 5 4 4 4 4 4 3 3 2 2 2 3 4 4 2 0 2 2 2 3 3 3 3 4 3 3 3 3
3 3 4 4 4 5 5 5 5 5 5 4 4 4 4 4 4 3 2 1 2 2 3 3 2 3 3 2 2 2 3 3 3 4 3 3 4 4
4 3 4 4 4 4 4 4 4 5 5 5 5 5 5 5 4 4 3 3 2 3 3 2 1 0 1 3 4 1 1 3 3 3 3 2 3 4
3 3 4 4 4 4 4 4 5 5 5 6 6 6 5 5 5 4 4 3 3 3 3 3 2 2 3 3 3 3 1 1 2 3 3 3 3 4
3 3 3 3 3 4 4 4 4 5 6 5 5 6 6 5 5 5 4 5 3 2 3 4 4 4 2 1 1 3 3 2 2 1 2 2 3 4
3 3 3 4 4 4 4 4 5 5 6 6 6 6 6 5 5 6 5 4 3 3 3 4 4 2 1 0 2 3 3 3 2 2 1 1 0 2
2 2 3 3 4 4 4 5 6 5 5 5 6 6 6 6 5 5 4 4 3 4 4 4 5 3 2 1 1 2 3 2 2 2 3 3 3 3
Wind_Direction
42 40 39 25 25 26 34 46 67 19 348 344 346 349 347 336 306 293 276 272 274 274 274 273 272 274 277 277 276 277 278 281 283 284 285 286 287 286
36 37 32 22 24 24 28 33 53 95 338 313 315 309 323 331 310 282 267 280 280 282 283 281 278 275 275 275 274 274 274 276 279 281 282 283 284 286
25 32 25 26 25 18 20 26 29 49 358 300 290 305 318 316 313 299 281 272 278 286 287 287 283 279 279 278 276 274 274 274 276 278 281 282 283 284
19 21 13 21 20 12 18 17 8 18 23 311 306 313 305 304 302 304 306 307 297 295 295 295 293 288 283 279 276 274 272 271 272 274 277 279 280 281
9 6 353 13 3 353 7 5 346 353 357 312 300 298 299 313 325 320 320 317 315 310 306 304 302 299 294 288 282 278 274 272 271 272 274 276 278 280
353 348 337 337 328 334 347 340 333 336 334 328 309 306 304 308 328 322 323 321 313 312 316 317 314 312 306 298 292 285 278 274 273 272 271 272 276 279
347 345 341 3 12 2 343 318 320 317 319 319 309 312 309 320 317 303 306 308 304 298 318 311 310 306 306 306 303 293 285 282 281 278 275 274 274 275
345 341 343 14 9 2 352 342 330 306 295 282 284 296 289 284 282 288 297 325 313 299 319 301 302 297 294 287 291 295 292 289 287 284 281 279 277 276
343 338 348 4 7 349 337 338 333 324 311 255 258 273 270 268 273 287 280 270 265 273 310 292 303 298 294 303 311 309 304 298 294 290 286 283 281 279
345 338 337 331 328 329 326 326 319 312 304 290 249 262 263 263 242 238 253 279 278 273 222 270 297 296 303 310 316 322 319 312 304 298 294 290 286 282
342 341 327 310 307 323 326 321 318 312 308 310 298 287 284 282 265 237 275 304 309 301 284 250 290 306 308 308 315 327 324 319 315 309 304 300 297 294
331 328 320 312 313 319 303 299 305 303 315 323 322 319 309 304 292 217 213 220 262 290 283 288 297 334 324 303 303 317 325 319 320 317 315 313 312 307
323 319 314 318 319 318 305 258 264 280 299 304 307 312 318 318 311 270 213 196 207 248 255 214 272 296 278 297 308 309 318 315 319 316 322 327 330 325
307 307 308 317 321 326 323 307 306 305 299 311 317 315 313 312 306 301 276 237 221 233 250 206 223 234 271 300 300 310 315 314 317 315 322 335 345 349
301 307 315 326 336 341 338 340 342 339 332 326 318 303 290 288 299 315 324 317 299 274 264 223 209 220 203 243 284 302 311 313 324 326 329 343 349 350
332 325 330 345 0 352 346 348 348 336 322 306 300 299 308 322 326 325 331 342 350 327 323 310 231 201 228 254 264 297 303 305 319 328 332 340 349 354
325 336 353 354 357 351 347 344 344 350 349 334 331 331 332 336 329 329 337 352 349 315 317 327 341 301 219 218 298 305 309 312 314 323 336 345 347 349
10 357 346 348 350 349 350 348 349 350 344 344 346 343 338 334 330 331 340 339 319 302 296 299 333 354 352 322 217 286 317 314 320 333 344 346 343 344
38 1 353 351 353 356 357 356 347 338 341 352 352 345 341 339 338 334 334 332 320 305 294 288 285 113 347 315 304 232 277 317 335 343 346 340 330 332
17 5 1 0 3 5 3 360 351 349 353 351 348 346 344 339 338 335 330 321 309 307 312 309 270 219 205 229 265 291 265 253 334 337 334 330 321 326
1 7 10 11 8 6 2 357 353 347 344 343 344 343 340 339 336 332 329 331 334 321 319 303 281 268 197 97 332 303 295 254 202 238 325 340 340 347
12 19 16 17 11 7 1 356 352 347 346 345 339 337 334 333 332 330 329 328 321 311 305 306 324 8 60 300 278 280 291 308 302 286 255 178 226 335
28 36 28 16 10 5 1 356 351 339 335 333 332 331 331 330 328 330 329 329 330 336 340 340 347 1 351 313 293 291 295 301 318 331 312 282 240 260